Location: De Greiden
(52.9496°N, 5.9137°E)
Time: 22:32:15
(UTC+00:00)

Meteor 1-27 - Pass Details

Date: 24 January 2021
Orbit: 837 x 893 km, 81.3° (Epoch: 01 March)

Event Time Altitude Azimuth Distance (km) Brightness Sun altitude
Rises 18:10:08 0° 348° (NNW) 3,444 7.4 -18.3°
Reaches altitude 10° 18:12:39 10° 353° (N) 2,495 6.6 -18.7°
Maximum altitude 18:18:11 53° 71° (ENE) 1,032 4.3 -19.5°
Enters shadow 18:23:19 11° 147° (SSE) 2,348 6.2 -20.2°
